Pueblo, CO

7:38 PM MDT on August 27, 2016 (GMT -0600)
Pueblo Memorial

Weather History for KPUB - June, 2012

Change the Weather History Date:

Wednesday, June 27, 2012

  Actual Average Record
Temperature  
Mean Temperature 85 °F 74 °F  
Max Temperature 105 °F 91 °F 105 °F (1990)
Min Temperature 65 °F 56 °F 41 °F (1985)
Degree Days  
Heating Degree Days 0 0  
Month to date heating degree days 0 22  
Since 1 June heating degree days 0 22  
Since 1 July heating degree days 5029 5635  
Cooling Degree Days 20 9  
Month to date cooling degree days 317 148  
Year to date cooling degree days 370 182  
Since 1 June cooling degree days 317 148  
Growing Degree Days 36 (Base 50)    
Moisture  
Dew Point 39 °F    
Average Humidity 23    
Maximum Humidity 37    
Minimum Humidity 9    
Precipitation  
Precipitation 0.01 in 0.05 in 0.82 in (2004)
Month to date precipitation 0.07 1.21  
Year to date precipitation 2.53 5.70  
Snow  
Snow 0.00 in 0.00 in 0.00 in (2002)
Month to date snowfall 0.0 0.0  
Since 1 June snowfall 0.0 0.0  
Since 1 July snowfall 32.1 31.8  
Snow Depth 0.00 in    
Sea Level Pressure  
Sea Level Pressure 29.75 in    
Wind  
Wind Speed 12 mph (West)    
Max Wind Speed 41 mph    
Max Gust Speed 61 mph    
Visibility 9 miles    
Events Rain    
T = Trace of Precipitation, MM = Missing Value Source: NWS Daily Summary

Daily Weather History Graph

Daily Weather History Graph

Search for Another Location

Airport or City:

Trip Planner

Search our weather history database for the weather conditions in past years. The results will help you decide how hot, cold, wet, or windy it might be!

Date:

Astronomy

Jun. 27, 2012 Rise Set
Actual Time 5:36 AM MDT 8:25 PM MDT
Civil Twilight 5:05 AM MDT 8:57 PM MDT
Nautical Twilight 4:25 AM MDT 9:36 PM MDT
Astronomical Twilight 3:40 AM MDT 10:21 PM MDT
Moon 1:56 PM MDT (6/27) 12:33 AM MDT (6/27)
Length of Visible Light 15h 52m
Length of Day
14h 48m
First Quarter, 57% of the Moon is Illuminated
Jun 27
First Quarter
Jul 3
Full
Jul 10
Last Quarter
Jul 18
New
Jul 26
First Quarter

Hourly Weather History & Observations

Time (MDT) Temp. Dew Point Humidity Pressure Visibility Wind Dir Wind Speed Gust Speed Precip Events Conditions
12:53 AM 73.0 °F 33.1 °F 23% 29.63 in 10.0 mi NNW 5.8 mph - N/A   Clear
1:53 AM 73.9 °F 35.1 °F 24% 29.62 in 10.0 mi NNW 10.4 mph - N/A   Clear
2:53 AM 71.1 °F 35.1 °F 27% 29.63 in 10.0 mi North 6.9 mph - N/A   Clear
3:53 AM 66.9 °F 39.0 °F 36% 29.66 in 10.0 mi WSW 8.1 mph - N/A   Clear
4:53 AM 66.0 °F 37.0 °F 34% 29.68 in 10.0 mi West 9.2 mph - N/A   Clear
5:53 AM 66.9 °F 36.0 °F 32% 29.71 in 10.0 mi WSW 8.1 mph - N/A   Clear
6:53 AM 71.1 °F 41.0 °F 34% 29.72 in 10.0 mi SW 4.6 mph - N/A   Clear
7:53 AM 78.1 °F 39.9 °F 25% 29.73 in 10.0 mi Calm Calm - N/A   Clear
8:53 AM 84.9 °F 45.0 °F 25% 29.73 in 10.0 mi South 4.6 mph - N/A   Clear
9:53 AM 93.9 °F 37.9 °F 14% 29.71 in 10.0 mi WSW 8.1 mph - N/A   Clear
10:53 AM 97.0 °F 37.9 °F 13% 29.72 in 10.0 mi West 10.4 mph 16.1 mph N/A   Clear
11:53 AM 99.0 °F 37.0 °F 12% 29.72 in 7.0 mi West 11.5 mph 23.0 mph N/A   Clear
12:53 PM 100.9 °F 34.0 °F 10% 29.70 in 10.0 mi WSW 12.7 mph 20.7 mph N/A   Clear
1:23 PM 102.2 °F 33.8 °F 9% 29.94 in 1.8 mi WSW 15.0 mph 21.9 mph N/A   Haze
1:31 PM 102.2 °F 33.8 °F 9% 29.94 in 10.0 mi WSW 13.8 mph 24.2 mph N/A   Scattered Clouds
1:53 PM 102.0 °F 32.0 °F 9% 29.68 in 10.0 mi NNW 13.8 mph 23.0 mph N/A   Scattered Clouds
2:53 PM 99.0 °F 37.0 °F 12% 29.68 in 10.0 mi WNW 9.2 mph - N/A   Scattered Clouds
3:53 PM 81.0 °F 52.0 °F 36% 29.78 in 3.0 mi WNW 32.2 mph 48.3 mph 0.01 in Rain Light Rain
4:53 PM 90.0 °F 37.9 °F 16% 29.76 in 10.0 mi NW 24.2 mph 31.1 mph 0.00 in   Clear
5:53 PM 90.0 °F 39.0 °F 17% 29.81 in 10.0 mi West 8.1 mph - N/A   Clear
6:53 PM 86.0 °F 45.0 °F 24% 29.79 in 10.0 mi SSE 10.4 mph - N/A   Clear
7:53 PM 84.9 °F 43.0 °F 23% 29.79 in 10.0 mi West 5.8 mph - N/A   Clear
8:53 PM 84.9 °F 44.1 °F 24% 29.84 in 10.0 mi West 32.2 mph 42.6 mph N/A   Clear
9:53 PM 81.0 °F 45.0 °F 28% 29.83 in 10.0 mi WNW 26.5 mph 38.0 mph N/A   Clear
10:53 PM 80.1 °F 44.1 °F 28% 29.81 in 10.0 mi NW 11.5 mph 20.7 mph N/A   Clear
11:53 PM 80.1 °F 44.1 °F 28% 29.82 in 10.0 mi West 16.1 mph - N/A   Clear